Location: Home
(42.5358°N, 72.7383°W)
Time: 06:05:59
(UTC-05:00)

Explorer 11/Cluster Stage 4 - Pass Details

Date: 01 December 2021
Orbit: 467 x 1255 km, 28.8° (Epoch: 25 January)

Event Time Altitude Azimuth Distance (km) Brightness Sun altitude
Rises 05:48:02 0° 253° (WSW) 4,044 - -13.2°
Exits shadow 05:49:56 - 248° (WSW) 3,502 9.4 -12.9°
Reaches altitude 10° 05:51:15 10° 243° (WSW) 3,152 9.2 -12.6°
Maximum altitude 05:57:48 28° 188° (S) 2,155 8.9 -11.5°
Drops below altitude 10° 06:04:26 10° 134° (SE) 3,190 10.9 -10.3°
Sets 06:07:43 0° 123° (ESE) 4,101 12.2 -9.8°
